Wind_Speed
35 39 41 45 49 53 57 61 64 67 69 72 72 69 63 58 53 50 50 51 53 54 55 55 56 56 55 55 55 54 52 51 50 50 49 48 48 47 47 46 44 43 42 41
35 39 42 46 51 55 59 63 65 68 70 72 70 66 60 55 52 51 52 54 56 57 58 58 58 57 57 56 55 54 53 52 51 50 49 49 48 48 47 47 46 45 44 42
38 41 45 48 54 58 61 64 67 68 70 72 69 63 59 54 52 53 55 58 59 60 60 60 60 58 56 54 52 50 49 49 48 48 47 47 46 46 45 45 45 44 44 43
40 44 48 52 56 60 63 65 68 69 71 71 68 62 57 54 54 55 58 60 61 61 60 59 57 54 51 50 49 49 49 49 49 48 47 46 45 44 44 43 42 42 42 42
42 46 50 54 58 62 65 66 68 70 71 69 66 60 55 54 55 58 60 62 62 60 59 56 53 50 49 49 50 50 50 49 49 48 47 46 45 43 42 40 40 39 39 40
43 48 53 56 60 64 66 67 69 70 70 68 64 59 56 56 57 60 62 61 60 58 54 50 49 48 48 49 49 50 51 51 50 49 48 47 45 43 40 38 37 36 36 37
45 50 54 59 63 65 66 68 69 70 69 66 62 58 58 58 60 61 61 59 57 53 50 48 47 47 48 50 51 53 53 53 52 51 50 48 46 43 41 38 35 33 33 34
48 52 56 60 63 65 66 68 69 69 68 64 60 57 58 59 60 60 59 56 52 49 47 46 47 48 50 52 54 55 55 55 54 53 51 49 47 45 42 39 36 33 31 31
48 52 57 60 63 65 66 67 68 69 66 62 58 57 58 59 60 59 57 52 48 45 45 47 49 51 52 54 55 56 56 55 54 53 52 51 49 46 43 40 37 33 31 29
50 54 58 61 63 65 66 67 69 68 65 60 57 57 58 59 58 56 53 48 44 44 45 48 50 52 54 56 57 57 57 56 55 54 52 51 50 48 45 41 38 34 31 29
51 55 58 61 63 65 66 67 68 66 62 58 57 57 58 58 56 52 48 44 43 44 46 49 52 54 55 57 58 58 57 56 56 55 54 53 51 50 47 43 40 35 31 28
51 56 59 61 63 64 66 67 67 64 60 57 56 57 57 56 53 48 44 42 43 45 47 50 53 55 57 58 59 58 57 56 57 57 56 56 54 51 48 45 40 36 32 29
52 56 59 61 63 64 65 66 65 62 58 56 56 57 56 53 49 44 42 41 43 45 48 51 53 56 57 59 59 58 57 57 59 59 59 59 58 55 48 42 38 35 31 28
53 56 59 61 62 63 64 64 63 60 57 56 56 56 54 50 46 42 40 41 43 46 49 51 54 56 57 59 59 58 57 57 59 60 61 62 62 59 52 43 35 30 27 25
53 56 58 60 61 62 63 63 62 58 56 55 55 54 51 47 43 40 39 41 44 46 48 51 53 56 58 59 59 58 56 57 59 61 63 64 64 62 55 46 37 28 23 21
53 56 58 59 60 61 62 62 60 57 54 54 54 52 49 44 41 39 39 41 43 45 47 50 53 56 58 58 59 58 57 57 59 62 64 65 65 63 59 51 41 30 22 17
53 56 58 58 59 60 61 61 58 55 53 53 52 50 46 42 39 38 40 42 44 45 47 49 52 55 57 58 59 58 57 58 59 61 63 65 66 65 62 57 48 37 28 20
53 56 57 58 58 59 60 59 56 53 52 52 51 48 44 40 38 37 39 41 43 45 46 48 51 53 57 58 58 59 59 59 60 60 61 63 66 66 64 62 56 47 37 28
54 55 56 57 57 58 58 57 54 52 51 50 49 46 42 39 37 37 38 40 41 42 43 45 48 51 55 57 58 59 59 59 60 59 59 61 63 64 64 63 61 58 51 42
54 55 55 56 56 57 57 55 53 50 49 49 47 44 40 37 36 37 38 39 40 41 41 42 46 49 52 55 57 58 59 59 59 59 59 59 60 61 63 63 62 60 57 54
53 54 54 54 55 55 55 53 51 49 48 47 45 42 38 36 35 35 37 39 39 39 39 41 44 47 50 53 56 57 57 58 58 59 59 59 59 59 59 60 60 59 58 57
53 53 53 53 53 54 53 51 49 47 46 45 43 40 37 34 34 34 36 37 38 37 37 38 41 45 48 51 53 55 56 56 57 58 59 59 59 59 58 57 57 57 56 56
52 52 52 51 52 52 52 49 47 45 44 43 42 39 35 33 33 33 34 36 36 36 36 37 39 42 45 48 50 52 54 55 55 56 58 58 59 59 58 57 56 54 53 53
51 51 50 50 50 50 49 47 45 43 42 41 40 37 34 31 31 31 33 34 35 35 35 35 37 39 42 45 47 49 51 53 54 55 56 57 58 58 58 57 56 55 53 52
50 49 49 49 49 48 47 45 43 41 40 40 38 36 32 30 29 30 31 32 33 34 34 34 35 37 39 42 44 46 48 50 52 53 54 55 56 56 57 57 56 56 55 53
49 48 47 47 47 47 45 43 41 39 38 38 37 34 31 28 27 28 29 30 32 33 33 34 34 35 36 39 41 44 46 48 49 50 52 52 53 54 55 55 56 55 55 54
47 46 46 46 45 45 43 41 38 37 36 36 35 33 29 27 25 26 27 29 30 31 32 33 34 34 35 36 38 40 43 45 47 48 49 50 51 52 53 54 54 54 54 54
Wind_Direction
327 327 330 330 328 329 330 331 332 332 333 333 333 333 332 331 329 330 330 330 330 329 328 326 325 323 321 319 317 315 313 311 308 305 302 298 295 292 289 287 285 283 281 280
327 327 330 330 329 332 333 333 333 334 334 334 334 333 332 331 330 330 330 330 330 329 328 327 326 324 322 321 320 318 317 315 313 310 307 303 299 295 291 287 283 280 278 276
328 329 332 333 333 334 334 334 334 335 335 335 335 334 333 331 330 331 331 331 331 330 329 328 328 327 326 326 326 326 325 323 321 318 315 311 306 301 296 290 285 280 276 273
329 331 335 335 334 335 335 335 335 335 336 336 336 336 334 331 331 331 331 331 331 331 330 331 331 332 333 333 333 332 330 329 327 325 322 318 314 309 303 296 289 282 276 270
331 332 335 335 335 335 335 336 336 336 337 337 337 336 333 332 332 333 333 333 333 333 333 334 336 337 337 337 336 335 335 333 332 330 327 324 320 315 310 303 295 286 278 270
331 333 335 335 335 336 335 336 336 337 338 338 337 336 336 335 335 334 334 334 334 335 337 339 340 340 341 341 341 341 339 337 335 333 331 329 326 322 317 311 303 294 283 273
333 335 335 336 336 335 336 336 337 338 339 339 338 338 337 337 336 336 336 336 337 338 341 342 344 345 345 344 343 342 340 339 337 335 333 331 329 326 322 317 311 303 292 280
333 335 335 336 335 335 335 336 338 339 340 340 339 339 338 337 337 337 337 338 340 342 345 346 347 347 346 345 344 343 342 340 339 337 335 333 331 328 324 320 316 309 301 290
333 334 334 335 335 335 335 337 338 339 341 341 340 339 338 338 338 338 339 341 344 347 349 349 349 348 348 347 346 346 345 344 342 341 339 336 333 329 325 321 317 311 304 296
333 334 334 334 334 334 335 337 339 340 341 342 341 340 340 339 339 340 342 345 348 350 351 351 351 350 350 349 349 349 348 348 347 345 344 341 337 333 328 322 317 312 306 299
332 333 334 334 334 334 336 338 340 341 342 342 342 341 341 341 341 343 346 349 351 352 353 354 353 352 352 352 352 352 352 352 351 349 347 344 341 336 330 324 318 312 306 298
331 332 333 333 333 334 336 339 341 342 343 343 342 342 342 343 344 347 350 352 353 354 355 355 355 354 354 354 354 354 355 355 354 352 350 348 344 340 333 326 318 311 305 298
331 332 332 332 333 335 337 339 341 343 343 343 343 343 344 345 347 350 352 354 355 356 356 356 356 356 356 356 356 356 356 357 357 356 354 352 349 345 339 330 320 310 302 294
331 331 332 333 334 336 338 340 342 343 344 344 344 345 346 348 350 352 354 355 356 356 357 357 358 358 358 358 358 358 358 359 359 359 358 357 355 352 347 341 330 316 303 293
330 331 332 333 334 336 338 341 343 344 344 345 345 346 348 350 352 354 355 356 357 358 358 359 360 0 1 1 1 0 0 0 1 2 2 2 1 360 357 352 345 334 317 299
330 331 332 333 334 336 339 341 343 344 345 345 347 348 349 351 353 355 356 357 358 359 359 0 2 3 3 3 3 3 2 3 4 5 5 6 6 6 6 4 1 355 343 325
330 331 332 333 335 337 340 342 343 344 345 346 348 349 351 353 354 356 357 357 358 359 1 3 4 5 5 5 6 5 6 7 7 7 8 10 11 13 14 15 13 11 7 359
331 331 332 333 335 338 340 342 343 344 345 347 349 350 352 354 355 356 357 357 358 360 2 4 5 6 8 8 8 8 10 11 11 11 12 14 16 19 20 22 24 24 22 19
331 331 332 334 336 338 340 342 343 344 345 347 349 351 352 354 355 356 358 358 360 1 3 5 6 8 10 10 11 12 14 14 14 14 15 17 20 22 25 27 30 32 33 33
330 331 332 334 336 338 340 342 343 344 345 348 349 351 352 353 355 356 358 359 1 2 4 6 8 10 11 11 13 15 16 17 17 18 19 20 22 24 27 29 32 34 37 39
329 330 331 333 335 337 340 341 342 344 345 348 349 351 352 353 354 356 358 360 1 3 5 6 9 11 12 13 15 16 18 19 20 20 22 23 25 26 28 30 32 35 37 39
328 329 331 333 335 337 339 341 342 343 345 347 349 350 351 352 354 356 359 0 1 3 5 7 10 12 14 15 16 17 18 20 21 22 23 25 26 27 28 30 32 34 36 38
327 328 329 331 334 336 339 340 341 342 345 347 348 350 350 352 354 356 358 360 1 3 5 7 10 13 15 16 16 17 19 20 21 23 24 25 27 28 29 30 31 32 33 35
325 326 328 330 333 336 338 339 340 341 343 346 348 349 350 351 353 355 357 359 1 3 5 7 9 12 14 15 16 17 19 20 22 23 25 26 28 29 30 31 32 32 33 34
323 324 326 329 332 335 337 338 339 340 342 345 347 348 349 350 352 354 358 360 2 4 6 7 8 10 12 14 15 16 18 20 22 24 25 26 28 29 31 32 32 33 34 34
321 322 325 328 331 334 336 337 337 338 341 344 346 347 348 348 350 353 358 1 3 6 8 9 9 9 10 12 15 16 18 20 21 23 24 26 27 29 30 31 32 33 34 34
318 320 323 326 330 332 334 335 335 337 339 343 344 345 346 346 348 352 357 1 5 8 10 11 12 12 12 13 15 17 18 19 21 22 24 25 27 29 30 31 32 33 33 34
Height
5805 5798 5792 5784 5775 5765 5754 5741 5728 5715 5701 5686 5672 5658 5644 5632 5621 5610 5600 5589 5578 5567 5556 5545 5534 5523 5513 5503 5493 5484 5476 5468 5461 5454 5448 5442 5437 5432 5428 5425 5422 5419 5417 5415
5801 5794 5787 5779 5768 5757 5745 5733 5719 5706 5692 5677 5663 5648 5636 5624 5614 5604 5593 5582 5570 5558 5547 5535 5524 5512 5501 5491 5481 5471 5462 5454 5446 5439 5432 5426 5420 5416 5411 5408 5405 5403 5401 5399
5794 5787 5780 5771 5760 5749 5737 5724 5711 5698 5686 5670 5656 5642 5629 5617 5607 5596 5585 5573 5561 5549 5536 5524 5512 5501 5490 5479 5469 5460 5450 5442 5433 5425 5418 5410 5404 5399 5394 5390 5388 5385 5384 5383
5787 5781 5772 5767 5753 5741 5729 5716 5702 5689 5675 5660 5646 5633 5621 5610 5600 5589 5577 5565 5552 5540 5527 5515 5503 5491 5480 5470 5460 5451 5441 5432 5423 5414 5406 5398 5391 5384 5378 5374 5370 5368 5367 5366
5781 5773 5766 5757 5745 5733 5721 5710 5695 5681 5667 5653 5639 5627 5616 5605 5593 5581 5569 5556 5543 5530 5518 5506 5495 5484 5474 5464 5454 5444 5433 5424 5414 5405 5396 5387 5379 5371 5365 5359 5355 5352 5350 5350
5775 5767 5759 5751 5738 5725 5713 5702 5687 5673 5659 5645 5631 5621 5610 5597 5585 5573 5560 5547 5534 5522 5510 5499 5489 5479 5469 5458 5448 5438 5427 5416 5406 5396 5386 5377 5368 5360 5353 5346 5341 5337 5335 5334
5769 5761 5752 5742 5729 5717 5706 5695 5678 5664 5650 5636 5623 5611 5600 5588 5577 5564 5552 5539 5527 5515 5505 5495 5485 5475 5464 5454 5443 5431 5420 5408 5397 5387 5377 5367 5357 5349 5341 5335 5329 5324 5321 5319
5763 5754 5747 5735 5723 5711 5700 5685 5671 5657 5643 5629 5617 5605 5594 5582 5570 5558 5545 5533 5521 5511 5500 5491 5481 5471 5460 5449 5438 5425 5413 5401 5389 5378 5367 5357 5348 5339 5330 5324 5318 5313 5309 5305
5759 5752 5740 5728 5716 5704 5691 5678 5665 5651 5638 5624 5612 5601 5589 5577 5565 5552 5540 5528 5517 5507 5498 5488 5478 5468 5457 5445 5433 5420 5407 5394 5382 5370 5358 5347 5337 5328 5320 5313 5307 5302 5297 5294
5752 5743 5733 5722 5709 5698 5685 5672 5659 5645 5631 5618 5607 5595 5584 5572 5559 5547 5536 5525 5515 5506 5496 5486 5475 5464 5452 5440 5428 5415 5401 5389 5376 5364 5352 5340 5328 5318 5309 5301 5295 5290 5286 5282
5747 5737 5727 5716 5703 5691 5678 5665 5652 5639 5625 5613 5602 5591 5579 5567 5555 5543 5532 5522 5513 5504 5494 5484 5473 5461 5449 5436 5424 5411 5397 5384 5371 5359 5346 5334 5321 5309 5298 5290 5282 5277 5273 5271
5741 5731 5721 5710 5697 5685 5672 5660 5646 5633 5620 5608 5597 5586 5574 5562 5550 5539 5529 5520 5511 5502 5492 5482 5471 5459 5446 5433 5420 5407 5394 5381 5368 5354 5340 5327 5314 5302 5288 5277 5269 5263 5259 5257
5734 5725 5714 5703 5691 5679 5667 5654 5641 5628 5615 5604 5593 5582 5570 5558 5547 5537 5528 5519 5510 5501 5491 5480 5469 5457 5444 5431 5417 5403 5391 5378 5364 5350 5335 5321 5306 5291 5278 5267 5256 5249 5245 5244
5728 5718 5708 5696 5685 5673 5661 5648 5635 5623 5611 5600 5589 5578 5566 5555 5544 5535 5526 5518 5509 5500 5490 5479 5468 5456 5443 5429 5416 5403 5390 5376 5363 5348 5332 5316 5299 5282 5266 5254 5245 5237 5233 5231
5722 5712 5702 5690 5679 5667 5655 5643 5630 5618 5607 5597 5585 5574 5563 5552 5543 5534 5526 5518 5508 5499 5489 5479 5468 5456 5442 5429 5416 5403 5389 5377 5362 5347 5331 5314 5296 5278 5260 5246 5235 5227 5223 5221
5716 5706 5695 5684 5673 5662 5650 5638 5626 5614 5603 5593 5582 5571 5560 5550 5541 5533 5526 5518 5509 5500 5490 5479 5468 5456 5443 5430 5417 5404 5390 5376 5362 5347 5331 5315 5297 5278 5260 5244 5231 5222 5217 5214
5709 5699 5689 5678 5667 5656 5644 5632 5621 5610 5600 5590 5579 5568 5558 5548 5540 5532 5524 5516 5508 5499 5489 5479 5468 5456 5445 5432 5419 5406 5392 5378 5364 5349 5334 5319 5301 5282 5264 5248 5234 5223 5216 5212
5702 5692 5682 5672 5661 5650 5639 5628 5616 5606 5597 5587 5576 5566 5556 5547 5540 5532 5524 5516 5507 5498 5489 5479 5469 5459 5447 5434 5422 5409 5394 5380 5367 5353 5339 5324 5307 5290 5273 5258 5243 5230 5221 5215
5695 5685 5675 5665 5655 5645 5634 5623 5613 5603 5593 5583 5573 5564 5555 5547 5540 5532 5525 5517 5509 5500 5491 5482 5472 5461 5450 5439 5426 5412 5398 5385 5372 5359 5346 5331 5317 5302 5286 5271 5257 5244 5233 5224
5688 5678 5669 5659 5649 5640 5629 5619 5609 5600 5590 5581 5571 5562 5554 5546 5539 5532 5525 5517 5509 5501 5493 5485 5475 5465 5454 5443 5430 5417 5404 5392 5380 5367 5354 5340 5326 5312 5299 5285 5272 5260 5249 5239
5681 5672 5662 5653 5644 5635 5625 5615 5605 5596 5588 5579 5570 5561 5553 5546 5539 5532 5524 5517 5509 5502 5494 5486 5477 5468 5458 5446 5435 5423 5411 5399 5387 5375 5362 5349 5336 5323 5311 5299 5287 5276 5265 5255
5674 5665 5656 5647 5639 5630 5620 5611 5602 5593 5585 5577 5568 5560 5552 5545 5539 5532 5525 5518 5511 5504 5496 5488 5480 5471 5461 5450 5440 5429 5418 5406 5395 5383 5371 5358 5346 5334 5322 5311 5300 5290 5280 5271
5667 5658 5650 5642 5634 5625 5616 5607 5598 5590 5583 5574 5566 5558 5551 5544 5538 5532 5525 5519 5512 5505 5497 5490 5482 5473 5465 5455 5446 5436 5425 5414 5403 5391 5380 5368 5356 5345 5334 5323 5312 5302 5293 5284
5659 5652 5644 5636 5628 5620 5612 5603 5595 5587 5580 5572 5565 5557 5550 5544 5538 5532 5526 5520 5513 5506 5499 5491 5484 5476 5468 5460 5451 5442 5432 5422 5411 5400 5389 5378 5367 5356 5345 5334 5324 5314 5305 5296
5652 5645 5638 5630 5623 5615 5607 5599 5591 5584 5577 5570 5563 5556 5549 5543 5538 5532 5527 5521 5514 5507 5500 5493 5486 5479 5472 5464 5456 5447 5438 5428 5418 5408 5398 5388 5377 5366 5356 5346 5336 5327 5317 5308
5645 5638 5631 5624 5617 5610 5602 5595 5588 5581 5575 5568 5561 5554 5548 5543 5538 5533 5527 5522 5515 5509 5502 5496 5489 5482 5476 5468 5460 5452 5444 5435 5425 5416 5407 5397 5387 5377 5367 5357 5348 5339 5329 5321
5637 5631 5625 5618 5611 5604 5597 5590 5584 5578 5572 5566 5559 5553 5547 5542 5537 5533 5528 5522 5517 5511 5505 5498 5492 5485 5479 5472 5464 5457 5449 5441 5432 5423 5414 5406 5396 5387 5377 5368 5359 5350 5341 5333